Theta_e
330 327 327 327 330 332 331 329 327 324 324 321 322 321 320 317 316 315 315 315 314 314 313 312 312 311 311 311 310 308 306 305
330 330 330 331 333 331 331 329 327 327 326 324 323 321 319 318 316 315 314 313 312 312 312 311 310 309 308 308 306 304 303 302
331 331 331 332 332 331 331 329 329 328 327 325 323 321 318 316 314 314 313 312 311 310 310 309 307 306 304 303 304 303 302 301
332 332 331 330 330 330 330 330 330 327 323 321 321 320 317 315 314 314 312 310 309 308 307 306 304 304 303 302 302 302 301 300
333 333 330 330 330 330 330 328 325 322 320 319 318 318 317 316 315 312 311 309 307 305 304 304 304 303 303 302 301 300 300 299
332 331 331 330 330 328 326 323 321 320 318 318 318 317 315 312 310 308 306 306 305 305 304 304 304 303 302 301 300 300 300 299
328 327 327 328 327 323 321 319 318 317 317 316 314 312 308 307 306 305 305 304 303 302 301 301 300 300 301 300 300 300 299 298
324 323 323 323 322 320 318 317 316 315 313 310 308 307 306 305 305 304 302 301 300 299 298 298 298 298 299 300 299 299 298 297
322 320 320 319 319 318 316 316 315 312 309 307 306 304 305 304 303 301 300 299 298 298 297 297 297 298 298 299 299 298 297 297
321 320 319 319 318 317 316 316 313 309 308 307 305 303 301 301 301 300 299 298 297 297 297 296 296 296 297 299 298 297 297 296
321 320 319 319 318 317 316 314 310 308 305 305 303 301 300 300 300 299 298 298 297 297 296 296 296 296 296 296 296 296 296 296
322 320 319 318 317 317 314 312 309 306 304 301 300 300 300 300 300 299 298 298 297 296 295 295 295 295 295 296 296 296 296 296
322 321 319 318 317 315 313 310 307 304 302 300 301 301 300 300 299 298 298 297 297 296 295 295 295 295 294 295 294 294 293 293
323 321 319 318 316 314 312 309 305 303 301 301 301 300 300 300 299 298 298 297 297 296 295 295 294 294 294 293 293 293 292 292
323 322 320 317 315 313 310 306 305 302 301 301 300 300 300 299 298 297 297 297 296 295 295 294 294 294 293 292 292 292 292 291
322 322 320 317 314 312 308 305 304 302 301 301 300 299 299 298 297 297 297 296 295 295 294 294 294 293 292 291 291 290 289 289
321 321 319 317 314 311 306 305 303 302 301 300 299 299 298 296 296 296 296 295 294 294 294 294 293 292 290 288 286 287 287 287
319 319 318 316 314 310 305 304 303 301 300 299 298 298 296 295 295 295 294 294 294 294 293 293 293 291 289 287 285 285 286 286
318 317 316 315 312 308 305 304 302 300 299 298 297 296 295 295 294 294 294 294 294 293 293 293 292 290 288 286 284 284 286 286
Wind_Speed
11 11 13 14 17 17 18 22 19 24 16 9 10 7 4 5 4 3 4 4 3 1 1 3 6 9 12 12 14 16 19 21
11 11 11 12 15 16 19 22 19 16 9 12 10 10 10 8 6 6 5 4 3 2 3 7 9 11 12 13 15 18 20 20
12 13 13 14 17 19 17 17 18 11 11 15 14 13 10 9 7 6 4 3 3 3 5 7 9 12 15 15 16 18 18 17
12 14 12 14 17 18 16 17 17 15 15 14 13 10 8 8 6 4 2 2 2 4 6 10 12 14 16 16 16 15 18 18
13 16 18 16 17 17 16 16 16 15 14 12 12 11 11 5 3 2 1 1 4 7 9 11 13 16 16 16 15 13 16 18
15 17 21 20 16 15 16 16 15 13 9 9 8 4 5 4 1 2 4 6 6 9 12 13 15 17 17 16 15 15 18 17
16 18 17 19 19 17 17 16 14 14 12 10 9 8 5 3 3 6 6 8 9 10 13 15 17 18 18 16 14 18 14 16
16 16 19 19 19 18 18 17 16 14 13 12 11 9 8 5 5 4 6 9 10 10 12 15 17 17 18 16 15 16 18 20
15 17 18 19 19 19 18 17 16 14 13 11 9 6 4 4 2 5 7 7 8 10 12 16 17 17 17 13 16 19 18 18
16 19 18 19 19 19 19 18 16 14 12 9 9 7 4 2 5 6 6 6 8 11 14 16 17 18 19 17 19 21 20 21
16 19 19 19 20 20 19 18 16 14 11 10 9 7 6 5 6 7 6 7 9 12 15 16 17 18 18 19 19 22 23 19
16 18 20 20 20 21 20 18 17 14 12 12 10 9 8 7 7 7 9 9 11 13 15 16 16 16 16 16 18 19 22 21
17 19 20 21 22 22 21 19 17 15 12 10 11 11 9 9 9 10 11 12 13 14 16 15 16 17 14 15 19 17 12 14
17 19 20 22 23 24 21 19 17 13 12 12 15 12 10 10 11 12 13 14 15 15 16 16 16 15 16 10 12 12 12 13
16 16 20 22 23 23 21 21 15 13 13 13 14 11 10 11 13 14 14 14 15 17 16 16 15 14 13 11 9 9 10 12
16 16 17 23 23 23 23 20 16 15 14 16 14 10 10 12 13 13 14 13 16 16 16 16 11 12 9 6 7 8 12 16
16 17 20 23 24 22 22 19 17 15 15 16 11 9 11 12 12 12 14 15 16 16 16 16 10 10 8 8 8 10 14 16
15 17 20 23 22 22 23 19 16 17 15 13 10 9 11 11 12 13 15 16 15 16 16 12 11 7 9 8 9 10 14 13
13 16 19 21 19 21 19 16 15 14 13 10 8 9 10 11 12 15 16 17 16 16 15 10 10 8 11 9 10 11 12 11
Wind_Direction
161 183 178 174 164 166 164 149 154 155 168 221 213 242 221 174 159 144 128 105 104 130 23 1 340 322 320 323 320 320 315 313
176 185 175 171 149 167 160 157 170 170 187 187 192 175 164 162 161 143 130 140 108 62 340 333 328 324 328 322 316 316 315 314
183 174 175 178 150 171 180 177 177 190 180 185 167 162 168 160 153 141 133 110 69 10 347 326 328 325 320 316 314 311 310 313
186 173 162 173 169 172 180 184 187 187 155 149 154 148 152 166 166 164 113 71 359 333 326 323 320 316 313 312 307 305 308 307
179 171 160 165 171 182 184 180 164 154 164 163 171 184 184 101 99 142 213 307 318 313 312 312 314 310 305 301 302 303 296 302
164 157 156 164 163 178 161 156 157 160 160 159 166 128 106 121 124 317 282 279 292 303 306 303 304 302 299 294 291 290 296 301
151 147 147 148 156 154 155 159 157 154 150 140 130 131 120 105 23 290 289 305 305 309 313 310 305 300 292 289 282 295 303 292
152 155 158 156 157 160 164 161 154 150 143 135 135 136 141 155 241 275 304 305 312 314 319 312 309 304 296 283 285 284 285 281
168 170 165 165 166 167 169 166 162 158 152 147 145 154 168 200 213 282 300 306 311 312 308 308 305 300 294 284 279 284 285 284
180 178 175 174 175 176 176 174 171 166 159 162 158 160 162 204 263 281 295 300 302 305 308 309 309 305 298 278 276 282 283 286
188 186 183 182 185 179 182 182 171 171 162 158 163 167 217 242 265 282 292 289 294 305 311 313 313 308 301 297 293 287 286 294
194 192 189 190 187 184 186 183 176 172 163 168 181 208 224 249 270 283 285 284 294 306 312 311 308 305 305 311 314 309 297 284
195 196 193 195 191 190 185 185 182 173 175 193 203 216 237 260 281 286 280 281 290 301 306 302 302 305 305 297 301 297 306 308
201 197 198 200 197 195 188 189 179 182 190 204 223 226 245 273 287 284 276 278 286 296 298 297 304 311 305 312 299 299 299 296
209 205 203 206 202 198 197 191 188 185 201 222 237 248 266 281 285 280 277 278 287 293 293 298 302 302 308 301 300 295 302 304
218 215 208 209 205 200 203 197 190 193 210 223 238 258 272 278 279 277 275 279 287 290 292 296 294 294 287 309 304 310 303 298
226 220 217 214 207 205 201 205 192 206 211 226 242 261 271 277 280 278 277 283 291 292 295 294 293 289 251 278 291 311 307 303
228 225 221 218 210 204 204 200 203 206 212 226 241 255 272 279 283 285 287 289 292 290 292 291 274 264 244 272 293 313 306 303
236 227 219 217 210 202 196 210 201 201 221 235 252 269 276 285 289 286 288 288 286 291 291 284 274 258 245 274 299 313 301 300